This is the latest recevied weather packets stored in our database for station/object KG0HG. If no packets are shown the sender has not sent any weather packets the latest 10 day(s).
| Time | Temp. | Humidity | Pressure | Rain* | Wind** | Luminosity | Snow |
|---|---|---|---|---|---|---|---|
| 1778167328 | 15° C | 58% | 1016.7 hPa | 0 mm | - | 35 W/m² | - |
| 1778167024 | 15° C | 58% | 1016.6 hPa | 0 mm | - | 37 W/m² | - |
| 1778166721 | 15° C | 59% | 1016.5 hPa | 0 mm | - | 37 W/m² | - |
| 1778166418 | 15° C | 59% | 1016.7 hPa | 0 mm | - | 32 W/m² | - |
| 1778166114 | 15° C | 61% | 1016.4 hPa | 0 mm | - | 29 W/m² | - |
| 1778165810 | 14.44° C | 61% | 1016.7 hPa | 0 mm | - | 46 W/m² | - |
| 1778165507 | 14.44° C | 62% | 1016.7 hPa | 0 mm | - | 32 W/m² | - |
| 1778165204 | 14.44° C | 63% | 1016.9 hPa | 0 mm | - | 27 W/m² | - |
| 1778164902 | 13.89° C | 64% | 1016.8 hPa | 0 mm | - | 26 W/m² | - |
| 1778164598 | 13.89° C | 65% | 1016.7 hPa | 0 mm | - | 27 W/m² | - |
| 1778164296 | 13.89° C | 66% | 1016.6 hPa | 0 mm | - | 25 W/m² | - |
| 1778163991 | 13.33° C | 66% | 1016.8 hPa | 0 mm | - | 44 W/m² | - |
| 1778163688 | 13.33° C | 66% | 1016.9 hPa | 0 mm | - | 66 W/m² | - |
| 1778163384 | 12.78° C | 66% | 1016.8 hPa | 0 mm | - | 48 W/m² | - |
| 1778163081 | 12.78° C | 68% | 1017 hPa | 0 mm | - | 23 W/m² | - |
| 1778162777 | 12.78° C | 69% | 1016.8 hPa | 0 mm | - | 52 W/m² | - |
| 1778162475 | 12.22° C | 69% | 1016.9 hPa | 0 mm | - | 30 W/m² | - |
| 1778162172 | 12.22° C | 70% | 1016.9 hPa | 0 mm | - | 43 W/m² | - |
| 1778161870 | 12.22° C | 72% | 1016.7 hPa | 0 mm | - | 22 W/m² | - |
| 1778161565 | 11.67° C | 74% | 1016.9 hPa | 0 mm | - | 55 W/m² | - |
| 1778161262 | 11.67° C | 73% | 1017 hPa | 0 mm | - | 54 W/m² | - |
| 1778160957 | 11.11° C | 74% | 1016.9 hPa | 0 mm | - | 33 W/m² | - |
| 1778160656 | 11.11° C | 75% | 1016.8 hPa | 0 mm | - | 19 W/m² | - |
| 1778160352 | 10.56° C | 76% | 1017.1 hPa | 0 mm | - | 20 W/m² | - |
| 1778160049 | 10° C | 79% | 1017.1 hPa | 0 mm | - | 18 W/m² | - |
* Rain latest hour (hover to see other rain measurements)
** Current wind speed in m/s (hover to see current wind gust speed)